| time (UTC) | temp F | wind direction | speed MPH | gust MPH | rain 1hr in | rain 24hr in | rain mn in | humidity % | barometer mb |
| 20260906184840 | 79 | 145 | 0.0 | 0.0 | 0.00 | 0.00 | 0.00 | 72 | 1021.6 |
| 20260906183344 | 80 | 145 | 0.0 | 0.0 | 0.00 | 0.00 | 0.00 | 69 | 1021.3 |
| 20260906181834 | 82 | 145 | 0.0 | 0.0 | 0.00 | 0.00 | 0.00 | 67 | 1021.2 |
| 20260906180330 | 83 | 146 | 0.0 | 0.0 | 0.00 | 0.00 | 0.00 | 65 | 1021.1 |
| 20260906174843 | 84 | 146 | 0.0 | 0.0 | 0.00 | 0.00 | 0.00 | 62 | 1021.1 |
| 20260906173344 | 85 | 146 | 0.0 | 1.0 | 0.00 | 0.00 | 0.00 | 58 | 1021.0 |
| 20260906171841 | 85 | 146 | 1.0 | 4.0 | 0.00 | 0.00 | 0.00 | 55 | 1021.0 |
| 20260906170336 | 86 | 146 | 1.0 | 3.0 | 0.00 | 0.00 | 0.00 | 54 | 1020.9 |
| 20260906164836 | 87 | 224 | 0.0 | 0.0 | 0.00 | 0.00 | 0.00 | 50 | 1020.7 |
| 20260906163330 | 88 | 224 | 0.0 | 0.0 | 0.00 | 0.00 | 0.00 | 47 | 1020.7 |
| 20260906161848 | 89 | 219 | 0.0 | 3.0 | 0.00 | 0.00 | 0.00 | 47 | 1020.7 |
| 20260906160339 | 89 | 220 | 2.0 | 4.0 | 0.00 | 0.00 | 0.00 | 47 | 1020.6 |
| 20260906154829 | 89 | 197 | 0.0 | 5.0 | 0.00 | 0.00 | 0.00 | 49 | 1020.7 |
| 20260906153328 | 89 | 248 | 2.0 | 4.0 | 0.00 | 0.00 | 0.00 | 49 | 1020.7 |
| 20260906151846 | 88 | 252 | 3.0 | 7.0 | 0.00 | 0.00 | 0.00 | 50 | 1020.7 |
| 20260906150335 | 88 | 242 | 3.0 | 7.0 | 0.00 | 0.00 | 0.00 | 49 | 1020.8 |
| 20260906144834 | 88 | 254 | 4.0 | 7.0 | 0.00 | 0.00 | 0.00 | 50 | 1020.8 |
| 20260906143331 | 88 | 342 | 2.0 | 4.0 | 0.00 | 0.00 | 0.00 | 51 | 1020.9 |
| 20260906141842 | 88 | 250 | 3.0 | 7.0 | 0.00 | 0.00 | 0.00 | 50 | 1021.0 |
| 20260906140341 | 87 | 282 | 4.0 | 6.0 | 0.00 | 0.00 | 0.00 | 51 | 1021.1 |
| 20260906134839 | 87 | 187 | 1.0 | 6.0 | 0.00 | 0.00 | 0.00 | 51 | 1021.3 |
| 20260906133333 | 87 | 281 | 2.0 | 6.0 | 0.00 | 0.00 | 0.00 | 50 | 1021.4 |
| 20260906131846 | 87 | 165 | 1.0 | 8.0 | 0.00 | 0.00 | 0.00 | 50 | 1021.5 |
| 20260906130348 | 87 | 246 | 3.0 | 10.0 | 0.00 | 0.00 | 0.00 | 50 | 1021.6 |
| 20260906124844 | 87 | 194 | 3.0 | 8.0 | 0.00 | 0.00 | 0.00 | 53 | 1021.6 |
| 20260906123345 | 87 | 201 | 2.0 | 6.0 | 0.00 | 0.00 | 0.00 | 52 | 1021.7 |
| 20260906121845 | 87 | 192 | 2.0 | 9.0 | 0.00 | 0.00 | 0.00 | 51 | 1021.7 |
| 20260906120325 | 86 | 331 | 4.0 | 7.0 | 0.00 | 0.00 | 0.00 | 52 | 1021.8 |
| 20260906114844 | 86 | 334 | 2.0 | 4.0 | 0.00 | 0.00 | 0.00 | 54 | 1021.9 |
| 20260906113325 | 86 | 33 | 2.0 | 7.0 | 0.00 | 0.00 | 0.00 | 53 | 1021.9 |
| 20260906111825 | 85 | 346 | 4.0 | 8.0 | 0.00 | 0.00 | 0.00 | 54 | 1021.9 |
| 20260906110348 | 84 | 227 | 1.0 | 7.0 | 0.00 | 0.00 | 0.00 | 54 | 1022.0 |
| 20260906104841 | 84 | 244 | 2.0 | 7.0 | 0.00 | 0.00 | 0.00 | 56 | 1022.1 |
| 20260906103332 | 84 | 268 | 2.0 | 7.0 | 0.00 | 0.00 | 0.00 | 56 | 1022.2 |
| 20260906101828 | 84 | 222 | 2.0 | 7.0 | 0.00 | 0.00 | 0.00 | 57 | 1022.3 |
| 20260906100343 | 84 | 217 | 0.0 | 9.0 | 0.00 | 0.00 | 0.00 | 55 | 1022.5 |
| 20260906094827 | 83 | 207 | 3.0 | 6.0 | 0.00 | 0.00 | 0.00 | 56 | 1022.5 |
| 20260906093329 | 82 | 246 | 1.0 | 4.0 | 0.00 | 0.00 | 0.00 | 56 | 1022.5 |
| 20260906091826 | 82 | 274 | 1.0 | 5.0 | 0.00 | 0.00 | 0.00 | 57 | 1022.6 |
| 20260906090347 | 81 | 150 | 2.0 | 5.0 | 0.00 | 0.00 | 0.00 | 59 | 1022.5 |
| 20260906084842 | 81 | 74 | 1.0 | 5.0 | 0.00 | 0.00 | 0.00 | 57 | 1022.6 |
| 20260906083344 | 80 | 86 | 3.0 | 6.0 | 0.00 | 0.00 | 0.00 | 56 | 1022.6 |
| 20260906081845 | 80 | 74 | 4.0 | 6.0 | 0.00 | 0.00 | 0.00 | 56 | 1022.5 |
| 20260906080336 | 79 | 38 | 3.0 | 6.0 | 0.00 | 0.00 | 0.00 | 59 | 1022.3 |
| 20260906074832 | 79 | 49 | 2.0 | 6.0 | 0.00 | 0.00 | 0.00 | 59 | 1022.2 |
| 20260906073347 | 78 | 55 | 3.0 | 5.0 | 0.00 | 0.00 | 0.00 | 60 | 1022.2 |
| 20260906071846 | 77 | 38 | 4.0 | 5.0 | 0.00 | 0.00 | 0.00 | 61 | 1022.1 |
| 20260906070335 | 75 | 21 | 3.0 | 5.0 | 0.00 | 0.00 | 0.00 | 65 | 1022.0 |
| 20260906064825 | 74 | 51 | 0.0 | 3.0 | 0.00 | 0.00 | 0.00 | 66 | 1021.9 |
| 20260906063344 | 74 | 51 | 0.0 | 3.0 | 0.00 | 0.00 | 0.00 | 68 | 1021.8 |
| 20260906061832 | 73 | 54 | 1.0 | 3.0 | 0.00 | 0.00 | 0.00 | 65 | 1021.6 |
| 20260906060347 | 73 | 59 | 2.0 | 4.0 | 0.00 | 0.00 | 0.00 | 64 | 1021.5 |
| 20260906054848 | 72 | 53 | 2.0 | 4.0 | 0.00 | 0.00 | 0.00 | 66 | 1021.2 |
| 20260906053345 | 72 | 34 | 3.0 | 4.0 | 0.00 | 0.00 | 0.00 | 64 | 1021.1 |
| 20260906051836 | 72 | 76 | 3.0 | 4.0 | 0.00 | 0.00 | 0.00 | 64 | 1020.9 |
| 20260906050333 | 72 | 89 | 2.0 | 4.0 | 0.00 | 0.00 | 0.00 | 63 | 1020.6 |
| 20260906044831 | 73 | 82 | 2.0 | 4.0 | 0.00 | 0.00 | 0.00 | 63 | 1020.5 |
| 20260906043344 | 73 | 94 | 3.0 | 5.0 | 0.00 | 0.00 | 0.00 | 62 | 1020.4 |
| 20260906041835 | 73 | 83 | 3.0 | 5.0 | 0.00 | 0.00 | 0.00 | 61 | 1020.3 |
| 20260906040332 | 73 | 96 | 4.0 | 6.0 | 0.00 | 0.00 | 0.00 | 62 | 1020.2 |
| 20260906034829 | 74 | 93 | 2.0 | 5.0 | 0.00 | 0.00 | 0.00 | 62 | 1020.1 |
| 20260906033343 | 74 | 84 | 4.0 | 9.0 | 0.00 | 0.00 | 0.00 | 63 | 1020.0 |
| 20260906031831 | 74 | 76 | 3.0 | 5.0 | 0.00 | 0.00 | 0.00 | 63 | 1020.0 |
| 20260906030344 | 74 | 74 | 4.0 | 6.0 | 0.00 | 0.00 | 0.00 | 61 | 1019.8 |
| 20260906024842 | 74 | 88 | 3.0 | 5.0 | 0.00 | 0.00 | 0.00 | 60 | 1019.7 |
| 20260906023340 | 74 | 89 | 3.0 | 5.0 | 0.00 | 0.00 | 0.00 | 59 | 1019.7 |
| 20260906021840 | 74 | 86 | 3.0 | 5.0 | 0.00 | 0.00 | 0.00 | 58 | 1019.6 |
| 20260906020332 | 74 | 100 | 4.0 | 5.0 | 0.00 | 0.00 | 0.00 | 59 | 1019.6 |
| 20260906014846 | 74 | 87 | 3.0 | 6.0 | 0.00 | 0.00 | 0.00 | 59 | 1019.4 |
| 20260906013341 | 73 | 86 | 3.0 | 5.0 | 0.00 | 0.00 | 0.00 | 62 | 1019.5 |
| 20260906011840 | 72 | 84 | 2.0 | 3.0 | 0.00 | 0.00 | 0.00 | 63 | 1019.3 |
| 20260906010335 | 72 | 84 | 2.0 | 3.0 | 0.00 | 0.00 | 0.00 | 61 | 1019.2 |
| 20260906004842 | 72 | 84 | 4.0 | 5.0 | 0.00 | 0.00 | 0.00 | 60 | 1019.2 |
| 20260906003338 | 73 | 80 | 3.0 | 4.0 | 0.00 | 0.00 | 0.00 | 59 | 1019.1 |
| 20260906001827 | 73 | 82 | 1.0 | 3.0 | 0.00 | 0.00 | 0.00 | 59 | 1019.1 |
| 20260906000329 | 73 | 82 | 2.0 | 4.0 | 0.00 | 0.00 | 0.00 | 58 | 1019.3 |
| 20260905234833 | 73 | 152 | 3.0 | 3.0 | 0.00 | 0.00 | 0.00 | 58 | 1019.2 |
| 20260905233343 | 74 | 184 | 3.0 | 4.0 | 0.00 | 0.00 | 0.00 | 59 | 1019.2 |
| 20260905231840 | 77 | 37 | 1.0 | 5.0 | 0.00 | 0.00 | 0.00 | 50 | 1018.7 |
| 20260905230338 | 77 | 37 | 3.0 | 6.0 | 0.00 | 0.00 | 0.00 | 50 | 1018.6 |
| 20260905224837 | 77 | 67 | 2.0 | 5.0 | 0.00 | 0.00 | 0.00 | 51 | 1018.5 |
| 20260905223342 | 76 | 72 | 4.0 | 7.0 | 0.00 | 0.00 | 0.00 | 52 | 1018.4 |
| 20260905221837 | 77 | 100 | 2.0 | 10.0 | 0.00 | 0.00 | 0.00 | 52 | 1018.3 |
| 20260905220336 | 77 | 79 | 5.0 | 7.0 | 0.00 | 0.00 | 0.00 | 53 | 1018.3 |
| 20260905214832 | 77 | 61 | 5.0 | 7.0 | 0.00 | 0.00 | 0.00 | 55 | 1018.3 |
| 20260905213330 | 77 | 88 | 4.0 | 7.0 | 0.00 | 0.00 | 0.00 | 55 | 1018.3 |
| 20260905211847 | 77 | 75 | 3.0 | 4.0 | 0.00 | 0.00 | 0.00 | 57 | 1018.3 |
| 20260905210343 | 78 | 76 | 2.0 | 3.0 | 0.00 | 0.00 | 0.00 | 54 | 1018.2 |
| 20260905204840 | 78 | 77 | 3.0 | 6.0 | 0.00 | 0.00 | 0.00 | 56 | 1017.9 |
| 20260905203335 | 78 | 71 | 3.0 | 5.0 | 0.00 | 0.00 | 0.00 | 58 | 1017.8 |
| 20260905201829 | 78 | 57 | 2.0 | 7.0 | 0.00 | 0.00 | 0.00 | 59 | 1017.7 |
| 20260905200345 | 79 | 34 | 4.0 | 7.0 | 0.00 | 0.00 | 0.00 | 58 | 1017.5 |
| 20260905194835 | 80 | 65 | 3.0 | 6.0 | 0.00 | 0.00 | 0.00 | 57 | 1017.4 |
| 20260905193347 | 80 | 58 | 3.0 | 5.0 | 0.00 | 0.00 | 0.00 | 58 | 1017.2 |
| 20260905191843 | 79 | 30 | 3.0 | 5.0 | 0.00 | 0.00 | 0.00 | 68 | 1017.0 |
| 20260905190340 | 78 | 15 | 2.0 | 4.0 | 0.00 | 0.00 | 0.00 | 72 | 1016.9 |